Weather History for Cape Lisburne, AK

Change the Weather History Date:

Tuesday, November 6, 2012

  Actual Average Record
Temperature  
Mean Temperature 26 °F -  
Max Temperature 28 °F 21 °F 39 °F (2003)
Min Temperature 23 °F 12 °F -5 °F (1999)
Degree Days  
Heating Degree Days 40    
Moisture  
Dew Point 21 °F    
Average Humidity 84    
Maximum Humidity 93    
Minimum Humidity 74    
Precipitation  
Precipitation 0.00 in - - ()
Sea Level Pressure  
Sea Level Pressure 30.12 in    
Wind  
Wind Speed 45 mph (North)    
Max Wind Speed 45 mph    
Max Gust Speed 53 mph    
Visibility 4 miles    
Events Snow    
Averages and records for this station are not official NWS values.
T = Trace of Precipitation, MM = Missing Value Source: NWS Daily Summary

Daily Weather History Graph

Daily Weather History Graph

Search for Another Location

Airport:

Trip Planner

Search our weather history database for the weather conditions in past years. The results will help you decide how hot, cold, wet, or windy it might be!

Date:

Astronomy

Nov. 06, 2012 Rise Set
Actual Time 10:50 AM AKST 4:44 PM AKST
Civil Twilight 9:35 AM AKST 5:59 PM AKST
Nautical Twilight 8:23 AM AKST 7:11 PM AKST
Astronomical Twilight 7:16 AM AKST 8:18 PM AKST
Moon No Moon Rise 4:06 PM AKST (11/6)
Length of Visible Light 8h 23m
Length of Day
5h 54m
Waning Gibbous, 51% of the Moon is Illuminated
Nov 6
Waning Gibbous
Nov 6
Last Quarter
Nov 13
New
Nov 20
First Quarter
Nov 28
Full

Hourly Weather History & Observations

Time (AKST) Temp. Windchill Dew Point Humidity Pressure Visibility Wind Dir Wind Speed Gust Speed Precip Events Conditions
7:22 AM 23.0 °F 2.4 °F 19.4 °F 86% 30.05 in 1.2 mi South 44.9 mph 52.9 mph N/A Snow Light Snow
7:43 AM 23.0 °F 2.4 °F 19.4 °F 86% 30.04 in 1.0 mi South 44.9 mph 52.9 mph N/A Snow Light Snow
7:56 AM 23.0 °F 2.4 °F 19.4 °F 86% 30.04 in 1.0 mi South 44.9 mph 51.8 mph N/A Snow Light Snow
8:55 AM 24.3 °F - 20.5 °F 85% 30.05 in 1.5 mi North - - N/A Snow Light Snow
9:19 AM 24.8 °F - 19.4 °F 80% 30.05 in 2.0 mi North - - N/A Snow Light Snow
9:44 AM 24.8 °F - 19.4 °F 80% 30.06 in 2.5 mi North - - N/A Snow Light Snow
9:55 AM 24.1 °F - 19.9 °F 84% 30.06 in 1.8 mi North - - N/A Snow Light Snow
10:29 AM 24.8 °F - 21.2 °F 86% 30.07 in 1.2 mi North - - N/A Snow Light Snow
10:55 AM 24.6 °F - 20.8 °F 86% 30.09 in 1.0 mi North - - N/A Snow Light Snow
11:14 AM 24.8 °F - 21.2 °F 86% 30.09 in 0.8 mi North - - N/A Snow Light Snow
11:39 AM 24.8 °F - 21.2 °F 86% 30.10 in 1.0 mi North - - N/A Snow Light Snow
11:55 AM 24.4 °F - 20.8 °F 86% 30.10 in 1.0 mi North - - N/A Snow Light Snow
12:04 PM 24.8 °F - 21.2 °F 86% 30.11 in 1.2 mi North - - N/A Snow Light Snow
12:55 PM 24.6 °F - 21.4 °F 87% 30.12 in 0.8 mi North - - N/A Snow Light Snow
1:09 PM 24.8 °F - 21.2 °F 86% 30.12 in 1.0 mi North - - N/A Snow Light Snow
1:34 PM 24.8 °F - 21.2 °F 86% 30.12 in 1.0 mi North - - N/A Snow Light Snow
1:55 PM 24.6 °F - 21.6 °F 88% 30.12 in 1.2 mi North - - N/A Snow Light Snow
2:19 PM 24.8 °F - 21.2 °F 86% 30.12 in 2.0 mi North - - N/A Snow Light Snow
2:44 PM 24.8 °F - 21.2 °F 86% 30.12 in 2.0 mi North - - N/A Snow Light Snow
2:55 PM 25.5 °F - 21.7 °F 86% 30.12 in 3.0 mi North - - N/A Snow Light Snow
3:09 PM 26.6 °F - 21.2 °F 80% 30.12 in 5.0 mi North - - N/A Snow Light Snow
3:34 PM 26.6 °F - 21.2 °F 80% 30.10 in 1.2 mi North - - N/A Snow Light Snow
3:55 PM 27.0 °F - 22.1 °F 82% 30.11 in 8.0 mi North - - N/A Snow Light Snow
4:55 PM 27.0 °F - 21.7 °F 81% 30.11 in 6.0 mi North - - N/A Snow Light Snow
5:55 PM 26.6 °F - 22.1 °F 83% 30.12 in 7.0 mi North - - N/A Snow Light Snow
6:39 PM 26.6 °F - 23.0 °F 86% 30.13 in 2.5 mi North - - N/A Snow Light Snow
6:55 PM 26.8 °F - 23.5 °F 88% 30.13 in 2.0 mi North - - N/A Snow Light Snow
7:04 PM 26.6 °F - 24.8 °F 93% 30.13 in 1.2 mi North - - N/A Snow Light Snow
7:29 PM 28.4 °F - 21.2 °F 74% 30.13 in 10.0 mi North - - N/A Snow Light Snow
7:54 PM 26.6 °F - 23.0 °F 86% 30.13 in 7.0 mi North - - N/A Snow Light Snow
7:55 PM 27.1 °F - 23.5 °F 86% 30.13 in 8.0 mi North - - N/A Snow Light Snow
8:20 PM 26.6 °F - 23.0 °F 86% 30.14 in 2.5 mi North - - N/A Snow Light Snow
8:55 PM 26.6 °F - 21.9 °F 82% 30.15 in 10.0 mi North - - N/A Snow Light Snow
9:25 PM 26.6 °F - 21.2 °F 80% 30.16 in 10.0 mi North - - N/A Snow Light Snow
9:50 PM 26.6 °F - 19.4 °F 74% 30.16 in 10.0 mi North - - N/A   Mostly Cloudy
9:55 PM 26.1 °F - 19.4 °F 76% 30.16 in 10.0 mi North - - N/A Snow Light Snow Showers
10:20 PM 24.8 °F - 23.0 °F 93% 30.16 in 2.0 mi North - - N/A Snow Light Snow Showers
10:45 PM 24.8 °F - 23.0 °F 93% 30.17 in 6.0 mi North - - N/A Snow Light Snow Showers
10:55 PM 25.2 °F - 21.2 °F 85% 30.17 in 8.0 mi North - - N/A Snow Light Snow Showers
11:10 PM 26.6 °F - 21.2 °F 80% 30.18 in 10.0 mi North - - N/A Snow Light Snow
11:35 PM 26.6 °F - 21.2 °F 80% 30.19 in 10.0 mi North - - N/A Snow Light Snow Showers
11:55 PM 26.1 °F - 21.4 °F 82% 30.19 in 10.0 mi North - - N/A Snow Light Snow Showers